Weather in Suzun

Russia / Novosibirsk Oblast     53°47′20″N   82°18′58″E
temp.,
°C
wind,
m/s
gust,
m/s
humid.,
%
clouds,
%
prec.,
mm/h
press.,
hPa
HPBL,
m
19 september, sun
sun1901:00+5sw267139 0.0 1012137
04:00+6ssw2866100 0.0 1011237
07:00+4s3107347 0.0 1010240
10:00+10s41148100 0.0 1007597
13:00+17ssw6103397 0.0 10051825
16:00+16wsw71135100 0.0 10032171
19:00+11w5104927 0.0 10051435
22:00+9w4953100 0.0 10071454
20 september, mon
mon2001:00+7wsw2663100 0.1 1008264
04:00+5wsw388558 0.3 1009451
07:00+4wsw5128198 0.3 1012764
10:00+6sw7126099 0.0 10121489
13:00+8wsw71154100 0.1 10131664
16:00+9wsw71245100 0.1 10122092
19:00+7wsw51066100 0.2 10131456
22:00+5wsw4880100 0.4 1013940
21 september, tue
tue2101:00+3wsw4108595 0.6 1014539
04:00+1w3109223 0.0 1015414
07:000wsw389671 0.0 1016342
10:00+3wsw588199 0.0 1017679
13:00+5w6879100 0.2 1017876
16:00+5w4881100 0.1 1018800
19:00+5w367999 0.3 1019850
22:00+2wsw229280 0.1 102127
22 september, wed
wed2201:00+1wsw22955 0.1 102136
04:000wsw25978 0.0 1021109
07:00−1wsw2599100 0.0 1022138
10:00+3wsw4678100 0.0 1022604
13:00+5wsw4658100 0.1 10211462
16:00+6wsw4656100 0.1 10211236
19:00+5w366695 0.2 1021732
22:00+2wsw2680100 0.0 1022163
23 september, thu
thu2301:00+1wsw258374 0.0 1021156
04:000sw2682100 0.0 1021169
07:00+1sw2786100 0.1 1021384
10:00+2sw3996100 0.9 1021418
13:00+2sw3899100 2.0 1021499
16:00+2wsw2499100 1.1 1022371
19:00+2w1296100 1.4 1023308
22:00+2nnw2595100 0.1 1024448